date,City,No. Stations,Air Quality,Index Value,Prominent Pollutant
2015-05-01,Faridabad,,Moderate,173,PM10
2015-05-02,Faridabad,,Poor,299,PM10
2015-05-03,Faridabad,,Very poor,341,PM10
2015-05-04,Faridabad,,Poor,251,PM10
2015-05-05,Faridabad,,Severe,438,PM10
2015-05-06,Faridabad,,Severe,481,PM10
2015-05-07,Faridabad,,Severe,482,PM10
2015-05-08,Faridabad,,Very poor,342,PM10
2015-05-09,Faridabad,,Poor,274,PM10
2015-05-11,Faridabad,,Very poor,301,PM10
2015-05-12,Faridabad,,Very poor,340,PM10
2015-05-13,Faridabad,,Poor,211,PM10
2015-05-15,Faridabad,1.0,Very poor,301,PM10
2015-05-16,Faridabad,1.0,Moderate,125,PM10
2015-05-17,Faridabad,1.0,Moderate,120,PM10
2015-05-18,Faridabad,1.0,Moderate,103,PM10
2015-05-19,Faridabad,1.0,Moderate,101,PM10
2015-05-21,Faridabad,1.0,Moderate,133,PM2.5
2015-05-22,Faridabad,1.0,Satisfactory,72,PM2.5
2015-05-23,Faridabad,1.0,Satisfactory,77,PM2.5
2015-05-24,Faridabad,1.0,Moderate,114,PM2.5
2015-05-25,Faridabad,1.0,Poor,295,PM2.5
2015-05-26,Faridabad,1.0,Poor,202,PM2.5
2015-05-27,Faridabad,1.0,Moderate,116,PM2.5
2015-05-28,Faridabad,1.0,Very poor,303,PM2.5
2015-05-29,Faridabad,1.0,Poor,255,PM2.5
2015-05-30,Faridabad,1.0,Poor,204,PM2.5
2015-05-31,Faridabad,1.0,Moderate,156,PM2.5
2015-06-01,Faridabad,1.0,Satisfactory,94,PM2.5
2015-06-02,Faridabad,1.0,Satisfactory,80,PM2.5
2015-06-03,Faridabad,1.0,Moderate,135,PM2.5
2015-06-04,Faridabad,1.0,Satisfactory,96,PM2.5
2015-06-05,Faridabad,1.0,Moderate,187,PM2.5
2015-06-06,Faridabad,1.0,Moderate,156,PM2.5
2015-06-07,Faridabad,1.0,Poor,218,PM2.5
2015-06-08,Faridabad,1.0,Moderate,182,PM2.5
2015-06-09,Faridabad,1.0,Poor,206,PM2.5
2015-06-10,Faridabad,1.0,Satisfactory,74,PM2.5
2015-06-11,Faridabad,1.0,Satisfactory,74,PM2.5
2015-06-13,Faridabad,1.0,Poor,233,PM2.5
2015-06-14,Faridabad,1.0,Moderate,113,PM2.5
2015-06-15,Faridabad,1.0,Moderate,154,PM2.5
2015-06-16,Faridabad,1.0,Poor,235,PM2.5
2015-06-17,Faridabad,1.0,Moderate,149,PM2.5
2015-06-18,Faridabad,1.0,Poor,235,PM2.5
2015-06-19,Faridabad,1.0,Moderate,198,PM2.5
2015-06-20,Faridabad,1.0,Satisfactory,79,PM2.5
2015-06-21,Faridabad,1.0,Good,44,PM2.5
2015-06-22,Faridabad,1.0,Satisfactory,64,PM2.5
2015-06-23,Faridabad,1.0,Satisfactory,74,PM2.5
2015-06-24,Faridabad,1.0,Moderate,134,PM2.5
2015-06-25,Faridabad,1.0,Satisfactory,98,CO
2015-06-26,Faridabad,1.0,Moderate,138,PM2.5
2015-06-27,Faridabad,1.0,Moderate,104,PM2.5
2015-06-28,Faridabad,1.0,Moderate,114,PM2.5
2015-07-01,Faridabad,1.0,Satisfactory,99,PM2.5
2015-07-02,Faridabad,1.0,Satisfactory,91,PM2.5
2015-07-03,Faridabad,1.0,Satisfactory,98,PM2.5
2015-07-04,Faridabad,1.0,Moderate,115,PM2.5
2015-07-05,Faridabad,1.0,Very Poor,351,PM2.5
2015-07-06,Faridabad,1.0,Poor,217,PM2.5
2015-07-07,Faridabad,1.0,Good,48,CO
2015-07-08,Faridabad,1.0,Moderate,123,PM2.5
2015-07-09,Faridabad,1.0,Satisfactory,78,PM2.5
2015-07-10,Faridabad,1.0,Moderate,127,PM2.5
2015-07-11,Faridabad,1.0,Good,31,CO
2015-07-12,Faridabad,1.0,Satisfactory,63,PM2.5
2015-07-13,Faridabad,1.0,Satisfactory,85,PM2.5
2015-07-14,Faridabad,1.0,Poor,273,PM2.5
2015-07-15,Faridabad,1.0,Poor,263,PM2.5
2015-07-16,Faridabad,1.0,Moderate,174,PM2.5
2015-07-17,Faridabad,1.0,Moderate,153,PM2.5
2015-07-18,Faridabad,1.0,Satisfactory,98,PM2.5
2015-07-19,Faridabad,1.0,Satisfactory,85,PM2.5
2015-07-20,Faridabad,1.0,Good,46,PM2.5
2015-07-21,Faridabad,1.0,Good,41,PM2.5
2015-07-22,Faridabad,1.0,Good,48,PM2.5
2015-07-23,Faridabad,1.0,Satisfactory,55,PM2.5
2015-07-24,Faridabad,1.0,Satisfactory,66,PM2.5
2015-07-25,Faridabad,1.0,Good,45,PM2.5
2015-07-26,Faridabad,1.0,Satisfactory,56,PM2.5
2015-07-27,Faridabad,1.0,Good,32,CO
2015-07-28,Faridabad,1.0,Good,25,CO
2015-07-29,Faridabad,1.0,Satisfactory,25,CO
2015-07-30,Faridabad,1.0,Good,37,CO
2015-07-31,Faridabad,1.0,Good,46,PM2.5
2015-08-01,Faridabad,1.0,Satisfactory,54,PM2.5
2015-08-02,Faridabad,1.0,Satisfactory,60,PM2.5
2015-08-03,Faridabad,1.0,Good,49,PM2.5
2015-08-04,Faridabad,1.0,Satisfactory,53,PM2.5
2015-08-05,Faridabad,1.0,Satisfactory,77,PM2.5
2015-08-06,Faridabad,1.0,Satisfactory,98,PM2.5
2015-08-07,Faridabad,1.0,Satisfactory,98,PM2.5
2015-08-08,Faridabad,1.0,Satisfactory,71,PM2.5
2015-08-09,Faridabad,1.0,Satisfactory,66,PM2.5
2015-08-10,Faridabad,1.0,Poor,251,PM2.5
2015-08-11,Faridabad,1.0,Moderate,179,PM2.5
2015-08-12,Faridabad,1.0,Good,35,PM2.5
2015-08-13,Faridabad,1.0,Satisfactory,71,PM2.5
2015-08-14,Faridabad,1.0,Moderate,101,PM2.5
2015-08-15,Faridabad,1.0,Poor,294,PM2.5
2015-08-16,Faridabad,1.0,Moderate,161,PM2.5
2015-08-17,Faridabad,1.0,Poor,232,PM2.5
2015-08-18,Faridabad,1.0,Poor,254,PM2.5
2015-08-19,Faridabad,1.0,Good,45,PM2.5
2015-08-20,Faridabad,1.0,Good,47,PM2.5
2015-08-21,Faridabad,1.0,Satisfactory,59,PM2.5
2015-08-22,Faridabad,1.0,Satisfactory,81,PM2.5
2015-08-23,Faridabad,1.0,Satisfactory,82,PM2.5
2015-08-24,Faridabad,1.0,Satisfactory,54,PM2.5
2015-08-25,Faridabad,1.0,Satisfactory,54,PM2.5
2015-08-26,Faridabad,1.0,Satisfactory,62,PM2.5
2015-08-27,Faridabad,1.0,Satisfactory,93,PM2.5
2015-08-29,Faridabad,1.0,Satisfactory,94,PM2.5
2015-08-30,Faridabad,1.0,Satisfactory,74,PM2.5
2015-08-31,Faridabad,1.0,Satisfactory,58,PM2.5
2015-09-01,Faridabad,1.0,Satisfactory,67,PM2.5
2015-09-02,Faridabad,1.0,Moderate,108,PM2.5
2015-09-03,Faridabad,1.0,Moderate,124,PM2.5
2015-09-04,Faridabad,1.0,Moderate,133,PM2.5
2015-09-05,Faridabad,1.0,Satisfactory,100,PM2.5
2015-09-06,Faridabad,1.0,Satisfactory,77,PM2.5
2015-09-07,Faridabad,1.0,Satisfactory,69,PM2.5
2015-09-08,Faridabad,1.0,Moderate,107,PM2.5
2015-09-09,Faridabad,1.0,Satisfactory,86,PM2.5
2015-09-10,Faridabad,1.0,Satisfactory,85,PM2.5
2015-09-12,Faridabad,1.0,Moderate,149,PM2.5
2015-09-17,Faridabad,1.0,Moderate,179,PM2.5
2015-09-18,Faridabad,1.0,Satisfactory,77,PM2.5
2015-09-19,Faridabad,1.0,Satisfactory,76,PM2.5
2015-09-20,Faridabad,1.0,Satisfactory,99,PM2.5
2015-09-21,Faridabad,1.0,Good,48,PM2.5
2015-09-23,Faridabad,1.0,Moderate,113,CO
2015-09-24,Faridabad,1.0,Satisfactory,52,PM2.5
2015-09-25,Faridabad,1.0,Satisfactory,90,PM2.5
2015-09-26,Faridabad,1.0,Moderate,126,PM2.5
2015-09-27,Faridabad,1.0,Moderate,129,PM2.5
2015-09-28,Faridabad,1.0,Satisfactory,91,PM2.5
2015-09-29,Faridabad,1.0,Moderate,126,PM2.5
2015-09-30,Faridabad,1.0,Satisfactory,77,PM2.5
2015-10-01,Faridabad,1.0,Moderate,112,PM2.5
2015-10-02,Faridabad,1.0,Moderate,140,PM2.5
2015-10-03,Faridabad,1.0,Moderate,135,PM2.5
2015-10-04,Faridabad,1.0,Poor,210,PM2.5
2015-10-05,Faridabad,1.0,Poor,232,PM2.5
2015-10-06,Faridabad,1.0,Poor,223,PM2.5
2015-10-07,Faridabad,1.0,Poor,262,PM2.5
2015-10-08,Faridabad,1.0,Poor,248,PM2.5
2015-10-09,Faridabad,1.0,Moderate,181,PM2.5
2015-10-10,Faridabad,1.0,Moderate,187,PM2.5
2015-10-11,Faridabad,1.0,Moderate,189,PM2.5
2015-10-12,Faridabad,1.0,Moderate,150,PM2.5
2015-10-13,Faridabad,1.0,Moderate,153,PM2.5
2015-10-14,Faridabad,1.0,Moderate,125,PM2.5
2015-10-15,Faridabad,1.0,Moderate,142,PM2.5
2015-10-16,Faridabad,1.0,Poor,272,PM2.5
2015-10-17,Faridabad,1.0,Poor,282,PM2.5
2015-10-18,Faridabad,1.0,Very Poor,307,PM2.5
2015-10-19,Faridabad,1.0,Very Poor,324,PM2.5
2015-10-20,Faridabad,1.0,Very Poor,312,PM2.5
2015-10-21,Faridabad,1.0,Very Poor,306,PM2.5
2015-10-23,Faridabad,1.0,Poor,267,PM2.5
2015-10-24,Faridabad,1.0,Poor,267,PM2.5
2015-10-25,Faridabad,1.0,Poor,284,PM2.5
2015-10-26,Faridabad,1.0,Moderate,197,PM2.5
2015-10-27,Faridabad,1.0,Poor,246,PM2.5
2015-10-28,Faridabad,1.0,Poor,229,PM2.5
2015-10-29,Faridabad,1.0,Moderate,111,PM2.5
2015-10-30,Faridabad,1.0,Poor,204,PM2.5
2015-10-31,Faridabad,1.0,Very Poor,351,PM2.5
2015-11-01,Faridabad,1.0,Very Poor,382,PM2.5
2015-11-02,Faridabad,1.0,Very Poor,316,PM2.5
2015-11-03,Faridabad,1.0,Very Poor,350,PM2.5
2015-11-04,Faridabad,1.0,Severe,408,PM2.5
2015-11-05,Faridabad,1.0,Poor,275,PM2.5
2015-11-07,Faridabad,1.0,Severe,414,PM2.5
2015-11-08,Faridabad,1.0,Very Poor,399,PM2.5
2015-11-09,Faridabad,1.0,Very Poor,309,PM2.5
2015-11-10,Faridabad,1.0,Very Poor,355,PM2.5
2015-11-11,Faridabad,1.0,Very Poor,378,PM2.5
2015-11-12,Faridabad,1.0,Very Poor,384,PM2.5
2015-11-13,Faridabad,1.0,Severe,401,PM2.5
2015-11-14,Faridabad,1.0,Very Poor,378,PM2.5
2015-11-15,Faridabad,1.0,Very Poor,313,PM2.5
2015-11-16,Faridabad,1.0,Very Poor,313,PM2.5
2015-11-17,Faridabad,1.0,Poor,259,PM2.5
2015-11-18,Faridabad,1.0,Poor,284,PM2.5
2015-11-19,Faridabad,1.0,Very Poor,362,PM2.5
2015-11-21,Faridabad,1.0,Severe,408,PM2.5
2015-11-22,Faridabad,1.0,Very Poor,387,PM2.5
2015-11-23,Faridabad,1.0,Very Poor,392,PM2.5
2015-11-24,Faridabad,1.0,Very Poor,399,PM2.5
2015-11-25,Faridabad,1.0,Poor,283,PM2.5
2015-11-26,Faridabad,1.0,Poor,267,PM2.5
2015-11-27,Faridabad,1.0,Poor,298,PM2.5
2015-11-28,Faridabad,1.0,Very Poor,379,PM2.5
2015-11-29,Faridabad,1.0,Very Poor,400,PM2.5
2015-11-30,Faridabad,1.0,Severe,405,PM2.5
2015-12-01,Faridabad,1.0,Very Poor,371,PM2.5
2015-12-02,Faridabad,1.0,Very Poor,351,PM2.5
2015-12-03,Faridabad,1.0,Very Poor,348,PM2.5
2015-12-04,Faridabad,1.0,Very Poor,318,PM2.5
2015-12-05,Faridabad,1.0,Very Poor,357,PM2.5
2015-12-08,Faridabad,1.0,Severe,441,PM2.5
2015-12-09,Faridabad,1.0,Severe,402,PM2.5
2015-12-10,Faridabad,1.0,Very Poor,375,PM2.5
2015-12-11,Faridabad,1.0,Very Poor,362,PM2.5
2015-12-12,Faridabad,1.0,Very Poor,380,PM2.5
2015-12-13,Faridabad,1.0,Poor,255,PM2.5
2015-12-14,Faridabad,1.0,Poor,250,PM2.5
2015-12-15,Faridabad,1.0,Poor,234,PM2.5
2015-12-16,Faridabad,1.0,Very Poor,327,PM2.5
2015-12-17,Faridabad,1.0,Very Poor,344,PM2.5
2015-12-18,Faridabad,1.0,Very Poor,387,PM2.5
2015-12-19,Faridabad,1.0,Very Poor,324,PM2.5
2015-12-20,Faridabad,1.0,Severe,406,PM2.5
2015-12-21,Faridabad,1.0,Very Poor,385,PM2.5
2015-12-22,Faridabad,1.0,Severe,446,PM2.5
2015-12-24,Faridabad,1.0,Very Poor,395,PM2.5
2015-12-25,Faridabad,1.0,Poor,273,PM2.5
2015-12-26,Faridabad,1.0,Very Poor,305,PM2.5
2015-12-27,Faridabad,1.0,Very Poor,352,PM2.5
2015-12-28,Faridabad,1.0,Very Poor,303,PM2.5
2015-12-29,Faridabad,1.0,Poor,276,PM2.5
2015-12-30,Faridabad,1.0,Very Poor,325,PM2.5
2015-12-31,Faridabad,1.0,Very Poor,373,PM2.5
2016-01-01,Faridabad,1.0,Severe,410,PM2.5
2016-01-02,Faridabad,1.0,Severe,413,PM2.5
2016-01-03,Faridabad,1.0,Very Poor,391,PM2.5
2016-01-04,Faridabad,1.0,Severe,426,PM2.5
2016-01-05,Faridabad,1.0,Severe,453,PM2.5
2016-01-06,Faridabad,1.0,Severe,442,PM2.5
2016-01-07,Faridabad,1.0,Severe,447,PM2.5
2016-01-15,Faridabad,1.0,Very Poor,361,PM2.5
2016-01-16,Faridabad,1.0,Very Poor,320,PM2.5
2016-01-22,Faridabad,1.0,Very Poor,388,PM2.5
2016-01-23,Faridabad,1.0,Severe,405,PM2.5
2016-01-24,Faridabad,1.0,Severe,449,PM2.5
2016-01-25,Faridabad,1.0,Severe,409,PM2.5
2016-01-26,Faridabad,1.0,Severe,445,PM2.5
2016-01-27,Faridabad,1.0,Severe,419,PM2.5
2016-01-28,Faridabad,1.0,Severe,436,PM2.5
2016-01-29,Faridabad,1.0,Severe,403,PM2.5
2016-01-30,Faridabad,1.0,Severe,420,PM2.5
2016-01-31,Faridabad,1.0,Severe,411,PM2.5
2016-02-01,Faridabad,1.0,Poor,253,PM2.5
2016-02-02,Faridabad,1.0,Poor,251,PM2.5
2016-02-03,Faridabad,1.0,Poor,241,PM2.5
2016-02-04,Faridabad,1.0,Poor,204,PM2.5
2016-02-06,Faridabad,1.0,Very Poor,363,PM2.5
2016-02-07,Faridabad,1.0,Very Poor,334,PM2.5
2016-02-08,Faridabad,1.0,Poor,265,PM2.5
2016-02-09,Faridabad,1.0,Poor,271,PM2.5
2016-02-10,Faridabad,1.0,Very Poor,346,PM2.5
2016-02-11,Faridabad,1.0,Very Poor,302,PM2.5
2016-02-12,Faridabad,1.0,Very Poor,311,PM2.5
2016-02-13,Faridabad,1.0,Poor,273,PM2.5
2016-02-14,Faridabad,1.0,Poor,219,PM2.5
2016-02-15,Faridabad,1.0,Poor,231,PM2.5
2016-02-16,Faridabad,1.0,Poor,264,PM2.5
2016-02-17,Faridabad,1.0,Poor,266,PM2.5
2016-02-18,Faridabad,1.0,Poor,282,PM2.5
2016-02-19,Faridabad,1.0,Very Poor,339,PM2.5
2016-02-20,Faridabad,1.0,Poor,292,PM2.5
2016-02-21,Faridabad,1.0,Poor,225,PM2.5
2016-02-22,Faridabad,1.0,Poor,211,PM2.5
2016-02-23,Faridabad,1.0,Moderate,161,PM2.5
2016-02-25,Faridabad,1.0,Poor,251,PM2.5
2016-02-28,Faridabad,1.0,Poor,299,PM2.5
2016-02-29,Faridabad,1.0,Very Poor,304,PM2.5
2016-03-17,Faridabad,1.0,Moderate,178,PM2.5
2016-03-18,Faridabad,1.0,Moderate,186,PM2.5
2016-03-19,Faridabad,1.0,Poor,207,PM2.5
2016-03-20,Faridabad,1.0,Poor,221,PM2.5
2016-03-21,Faridabad,1.0,Moderate,124,PM2.5
2016-03-22,Faridabad,1.0,Satisfactory,58,PM2.5
2016-03-23,Faridabad,1.0,Satisfactory,78,PM2.5
2016-03-24,Faridabad,1.0,Poor,286,PM2.5
2016-03-25,Faridabad,1.0,Poor,280,PM2.5
2016-03-26,Faridabad,1.0,Moderate,167,PM2.5
2016-03-29,Faridabad,1.0,Moderate,128,PM2.5
2016-03-30,Faridabad,1.0,Poor,228,PM2.5
2016-03-31,Faridabad,1.0,Poor,274,PM2.5
2016-04-01,Faridabad,1.0,Poor,274,PM2.5
2016-04-02,Faridabad,1.0,Poor,208,PM2.5
2016-04-03,Faridabad,1.0,Poor,235,PM2.5
2016-04-08,Faridabad,1.0,Moderate,123,PM2.5
2016-04-11,Faridabad,1.0,Moderate,199,PM2.5
2016-04-12,Faridabad,1.0,Moderate,111,PM2.5
2016-04-13,Faridabad,1.0,Moderate,131,PM2.5
2016-04-14,Faridabad,1.0,Poor,201,PM2.5
2016-04-15,Faridabad,1.0,Poor,235,PM2.5
2016-04-16,Faridabad,1.0,Poor,230,PM2.5
2016-04-17,Faridabad,1.0,Moderate,173,PM2.5
2016-04-18,Faridabad,1.0,Moderate,195,PM2.5
2016-04-19,Faridabad,1.0,Poor,271,PM2.5
2016-04-20,Faridabad,1.0,Moderate,160,PM2.5
2016-04-22,Faridabad,1.0,Poor,223,PM2.5
2016-04-25,Faridabad,1.0,Poor,224,PM2.5
2016-04-27,Faridabad,1.0,Poor,294,PM2.5
2016-04-28,Faridabad,1.0,Very Poor,359,PM2.5
2016-04-29,Faridabad,1.0,Very Poor,302,PM2.5
2016-04-30,Faridabad,1.0,Severe,443,PM2.5
2016-05-01,Faridabad,1.0,Severe,413,PM2.5
2016-05-02,Faridabad,1.0,Severe,456,PM2.5
2016-05-03,Faridabad,1.0,Very Poor,319,PM2.5
2016-05-04,Faridabad,1.0,Poor,286,PM2.5
2016-05-05,Faridabad,1.0,Moderate,133,PM2.5
2016-05-06,Faridabad,1.0,Moderate,123,PM2.5
2016-05-07,Faridabad,1.0,Poor,253,PM2.5
2016-05-08,Faridabad,1.0,Poor,220,PM2.5
2016-05-09,Faridabad,1.0,Moderate,178,PM2.5
2016-05-11,Faridabad,1.0,Satisfactory,80,PM2.5
2016-05-12,Faridabad,1.0,Moderate,181,PM2.5
2016-05-13,Faridabad,1.0,Moderate,184,PM2.5
2016-05-14,Faridabad,1.0,Moderate,168,PM2.5
2016-05-15,Faridabad,1.0,Very Poor,352,O3
2016-05-16,Faridabad,1.0,Moderate,166,PM2.5
2016-05-17,Faridabad,1.0,Satisfactory,91,PM2.5
2016-05-18,Faridabad,1.0,Moderate,150,PM2.5
2016-05-19,Faridabad,1.0,Moderate,200,PM2.5
2016-05-20,Faridabad,1.0,Moderate,131,PM2.5
2016-05-21,Faridabad,1.0,Moderate,117,PM2.5
2016-05-22,Faridabad,1.0,Moderate,101,PM2.5
2016-05-23,Faridabad,1.0,Moderate,131,PM2.5
2016-05-24,Faridabad,1.0,Satisfactory,84,PM2.5
2016-05-25,Faridabad,1.0,Moderate,169,PM2.5
2016-05-26,Faridabad,1.0,Moderate,170,PM2.5
2016-05-27,Faridabad,1.0,Poor,282,PM2.5
2016-05-28,Faridabad,1.0,Poor,219,PM2.5
2016-05-29,Faridabad,1.0,Moderate,108,PM2.5
2016-05-30,Faridabad,1.0,Satisfactory,85,PM2.5
2016-05-31,Faridabad,1.0,Poor,213,PM2.5
2016-06-01,Faridabad,1.0,Moderate,128,PM2.5
2016-06-02,Faridabad,1.0,Moderate,119,PM2.5
2016-06-03,Faridabad,1.0,Poor,297,PM2.5
2016-06-04,Faridabad,1.0,Poor,286,PM2.5
2016-06-05,Faridabad,1.0,Moderate,181,PM2.5
2016-06-07,Faridabad,1.0,Moderate,197,PM2.5
2016-06-08,Faridabad,1.0,Moderate,124,PM2.5
2016-06-09,Faridabad,1.0,Moderate,129,PM2.5
2016-06-10,Faridabad,1.0,Moderate,104,PM2.5
2016-06-11,Faridabad,1.0,Moderate,126,PM2.5
2016-06-12,Faridabad,1.0,Satisfactory,84,PM2.5
2016-06-13,Faridabad,1.0,Moderate,147,PM2.5
2016-06-14,Faridabad,1.0,Moderate,101,PM2.5
2016-06-15,Faridabad,1.0,Moderate,174,PM2.5
2016-06-16,Faridabad,1.0,Moderate,114,PM2.5
2016-06-17,Faridabad,1.0,Satisfactory,91,PM2.5
2016-06-18,Faridabad,1.0,Moderate,126,PM2.5
2016-06-19,Faridabad,1.0,Moderate,105,PM2.5
2016-06-20,Faridabad,1.0,Satisfactory,93,PM2.5
2016-06-21,Faridabad,1.0,Satisfactory,75,PM2.5
2016-06-22,Faridabad,1.0,Satisfactory,70,PM2.5
2016-06-23,Faridabad,1.0,Satisfactory,84,PM2.5
2016-06-24,Faridabad,1.0,Poor,235,PM2.5
2016-06-25,Faridabad,1.0,Poor,229,PM2.5
2016-06-26,Faridabad,1.0,Satisfactory,95,PM2.5
2016-06-27,Faridabad,1.0,Moderate,127,PM2.5
2016-06-28,Faridabad,1.0,Moderate,102,PM2.5
2016-06-29,Faridabad,1.0,Satisfactory,67,PM2.5
2016-06-30,Faridabad,1.0,Satisfactory,90,PM2.5
2016-07-01,Faridabad,1.0,Satisfactory,82,PM2.5
2016-07-02,Faridabad,1.0,Satisfactory,62,PM2.5
2016-07-03,Faridabad,1.0,Satisfactory,72,PM2.5
2016-07-05,Faridabad,1.0,Moderate,120,PM2.5
2016-07-06,Faridabad,1.0,Moderate,128,PM2.5
2016-07-07,Faridabad,1.0,Satisfactory,77,PM2.5
2016-07-08,Faridabad,1.0,Moderate,106,PM2.5
2016-07-10,Faridabad,1.0,Satisfactory,87,PM2.5
2016-07-11,Faridabad,1.0,Moderate,108,PM2.5
2016-07-12,Faridabad,1.0,Moderate,156,PM2.5
2016-07-13,Faridabad,1.0,Satisfactory,87,PM2.5
2016-07-14,Faridabad,1.0,Satisfactory,74,PM2.5
2016-07-15,Faridabad,1.0,Satisfactory,85,PM2.5
2016-07-16,Faridabad,1.0,Moderate,112,PM2.5
2016-07-17,Faridabad,1.0,Satisfactory,87,PM2.5
2016-07-18,Faridabad,1.0,Satisfactory,65,PM2.5
2016-07-19,Faridabad,1.0,Satisfactory,77,PM2.5
2016-07-20,Faridabad,1.0,Satisfactory,87,PM2.5
2016-07-26,Faridabad,1.0,Moderate,143,PM2.5
2016-07-27,Faridabad,1.0,Satisfactory,68,PM2.5
2016-07-28,Faridabad,1.0,Satisfactory,75,PM2.5
2016-07-29,Faridabad,1.0,Satisfactory,78,PM2.5
2016-07-30,Faridabad,1.0,Satisfactory,69,CO
2016-07-31,Faridabad,1.0,Satisfactory,85,PM2.5
2016-08-01,Faridabad,1.0,Moderate,161,PM2.5
2016-08-02,Faridabad,1.0,Satisfactory,58,PM2.5
2016-08-03,Faridabad,1.0,Satisfactory,58,PM2.5
2016-08-04,Faridabad,1.0,Satisfactory,94,PM2.5
2016-08-06,Faridabad,1.0,Very Poor,333,PM2.5
2016-08-07,Faridabad,1.0,Good,48,PM2.5
2016-08-08,Faridabad,1.0,Satisfactory,71,CO
2016-08-09,Faridabad,1.0,Satisfactory,52,PM2.5
2016-08-10,Faridabad,1.0,Satisfactory,73,CO
2016-08-11,Faridabad,1.0,Satisfactory,70,CO
2016-08-12,Faridabad,1.0,Satisfactory,86,CO
2016-08-13,Faridabad,1.0,Satisfactory,80,PM2.5
2016-08-14,Faridabad,1.0,Moderate,110,PM2.5
2016-08-15,Faridabad,1.0,Moderate,108,PM2.5
2016-08-16,Faridabad,1.0,Satisfactory,67,PM2.5
2016-08-17,Faridabad,1.0,Satisfactory,70,PM2.5
2016-08-18,Faridabad,1.0,Moderate,120,CO
2016-08-19,Faridabad,1.0,Satisfactory,85,CO
2016-08-20,Faridabad,1.0,Satisfactory,69,PM2.5
2016-08-21,Faridabad,1.0,Satisfactory,58,CO
2016-08-22,Faridabad,1.0,Satisfactory,52,CO
2016-08-23,Faridabad,1.0,Satisfactory,69,PM2.5
2016-08-24,Faridabad,1.0,Satisfactory,67,PM2.5
2016-08-25,Faridabad,1.0,Satisfactory,62,PM2.5
2016-08-26,Faridabad,1.0,Moderate,105,PM2.5
2016-08-27,Faridabad,1.0,Satisfactory,79,PM2.5
2016-08-28,Faridabad,1.0,Satisfactory,81,PM2.5
2016-08-29,Faridabad,1.0,Moderate,105,PM2.5
2016-08-30,Faridabad,1.0,Satisfactory,83,CO
2016-08-31,Faridabad,1.0,Satisfactory,61,PM2.5
2016-09-01,Faridabad,1.0,Good,45,PM2.5
2016-09-02,Faridabad,1.0,Satisfactory,71,PM2.5
2016-09-03,Faridabad,1.0,Moderate,113,PM2.5
2016-09-04,Faridabad,1.0,Moderate,110,PM2.5
2016-09-05,Faridabad,1.0,Satisfactory,92,PM2.5
2016-09-06,Faridabad,1.0,Satisfactory,94,PM2.5
2016-09-07,Faridabad,1.0,Moderate,142,PM2.5
2016-09-08,Faridabad,1.0,Poor,272,PM2.5
2016-09-09,Faridabad,1.0,Satisfactory,83,PM2.5
2016-09-10,Faridabad,1.0,Satisfactory,73,PM2.5
2016-09-11,Faridabad,1.0,Satisfactory,62,PM2.5
2016-09-12,Faridabad,1.0,Satisfactory,65,PM2.5
2016-09-13,Faridabad,1.0,Moderate,118,PM2.5
2016-09-14,Faridabad,1.0,Satisfactory,79,CO
2016-09-15,Faridabad,1.0,Moderate,165,PM2.5
2016-09-16,Faridabad,1.0,Moderate,193,PM2.5
2016-09-17,Faridabad,1.0,Poor,211,PM2.5
2016-09-18,Faridabad,1.0,Poor,206,PM2.5
2016-09-19,Faridabad,1.0,Moderate,145,PM2.5
2016-09-20,Faridabad,1.0,Moderate,190,PM2.5
2016-09-21,Faridabad,1.0,Moderate,192,PM2.5
2016-09-22,Faridabad,1.0,Satisfactory,73,PM2.5
2016-09-23,Faridabad,1.0,Satisfactory,64,PM2.5
2016-09-24,Faridabad,1.0,Satisfactory,82,PM2.5
2016-09-25,Faridabad,1.0,Satisfactory,80,PM2.5
2016-09-26,Faridabad,1.0,Moderate,118,PM2.5
2016-09-27,Faridabad,1.0,Moderate,116,PM2.5
2016-09-28,Faridabad,1.0,Poor,223,PM2.5
2016-09-29,Faridabad,1.0,Moderate,191,PM2.5
2016-09-30,Faridabad,1.0,Moderate,140,PM2.5
2016-10-01,Faridabad,1.0,Moderate,172,PM2.5
2016-10-02,Faridabad,1.0,Satisfactory,100,PM2.5
2016-10-03,Faridabad,1.0,Moderate,130,PM2.5
2016-10-04,Faridabad,1.0,Poor,268,PM2.5
2016-10-09,Faridabad,1.0,Poor,287,PM2.5
2016-10-10,Faridabad,1.0,Very Poor,366,PM2.5
2016-10-11,Faridabad,1.0,Poor,281,PM2.5
2016-10-12,Faridabad,1.0,Poor,270,PM2.5
2016-10-15,Faridabad,1.0,Poor,298,PM2.5
2016-10-16,Faridabad,1.0,Poor,292,PM2.5
2016-10-17,Faridabad,1.0,Poor,291,PM2.5
2016-10-18,Faridabad,1.0,Very Poor,307,PM2.5
2016-10-19,Faridabad,1.0,Very Poor,311,PM2.5
2016-10-20,Faridabad,1.0,Poor,272,PM2.5
2016-10-21,Faridabad,1.0,Poor,249,PM2.5
2016-10-22,Faridabad,1.0,Poor,235,PM2.5
2016-10-25,Faridabad,1.0,Poor,243,PM2.5
2016-10-26,Faridabad,1.0,Poor,300,PM2.5
2016-10-27,Faridabad,1.0,Very Poor,396,PM2.5
2016-10-28,Faridabad,1.0,Severe,414,PM2.5
2016-10-29,Faridabad,1.0,Severe,405,PM2.5
2016-10-30,Faridabad,1.0,Severe,410,PM2.5
2016-10-31,Faridabad,1.0,Severe,428,PM2.5
2016-11-01,Faridabad,1.0,Severe,454,PM2.5
2016-11-02,Faridabad,1.0,Severe,468,PM2.5
2016-11-03,Faridabad,1.0,Severe,427,PM2.5
2016-11-04,Faridabad,1.0,Severe,453,PM2.5
2016-11-05,Faridabad,1.0,Severe,493,PM2.5
2016-11-06,Faridabad,1.0,Severe,495,PM2.5
2016-11-07,Faridabad,1.0,Severe,486,PM2.5
2016-11-08,Faridabad,1.0,Good,40,O3
2016-11-09,Faridabad,1.0,Severe,437,PM2.5
2016-11-10,Faridabad,1.0,Severe,452,PM2.5
2016-11-11,Faridabad,1.0,Severe,474,PM2.5
2016-11-12,Faridabad,1.0,Severe,443,PM2.5
2016-11-13,Faridabad,1.0,Very Poor,382,PM2.5
2016-11-14,Faridabad,1.0,Very Poor,374,PM2.5
2016-11-15,Faridabad,1.0,Very Poor,388,PM2.5
2016-11-16,Faridabad,1.0,Severe,416,PM2.5
2016-11-17,Faridabad,1.0,Very Poor,385,PM2.5
2016-11-18,Faridabad,1.0,Very Poor,362,PM2.5
2016-11-19,Faridabad,1.0,Very Poor,395,PM2.5
2016-11-20,Faridabad,1.0,Severe,414,PM2.5
2016-11-21,Faridabad,1.0,Severe,439,PM2.5
2016-11-22,Faridabad,1.0,Very Poor,308,PM2.5
2016-11-23,Faridabad,1.0,Poor,289,PM2.5
2016-11-24,Faridabad,1.0,Very Poor,355,PM2.5
2016-11-25,Faridabad,1.0,Poor,286,PM2.5
2016-11-26,Faridabad,1.0,Moderate,163,PM2.5
2016-11-27,Faridabad,1.0,Poor,250,PM2.5
2016-11-28,Faridabad,1.0,Moderate,179,PM2.5
2016-11-29,Faridabad,1.0,Very Poor,324,PM2.5
2016-11-30,Faridabad,1.0,Severe,406,PM2.5
2016-12-01,Faridabad,1.0,Severe,431,PM2.5
2016-12-02,Faridabad,1.0,Severe,454,PM2.5
2016-12-03,Faridabad,1.0,Very Poor,393,PM2.5
2016-12-06,Faridabad,1.0,Moderate,102,CO
2016-12-08,Faridabad,1.0,Severe,438,PM2.5
2016-12-09,Faridabad,1.0,Severe,454,PM2.5
2016-12-11,Faridabad,1.0,Severe,408,PM2.5
2016-12-12,Faridabad,1.0,Very Poor,374,PM2.5
2016-12-13,Faridabad,1.0,Very Poor,331,PM2.5
2016-12-14,Faridabad,1.0,Very Poor,318,PM2.5
2016-12-15,Faridabad,1.0,Poor,277,PM2.5
2016-12-16,Faridabad,1.0,Very Poor,309,PM2.5
2016-12-17,Faridabad,1.0,Very Poor,398,PM2.5
2016-12-18,Faridabad,1.0,Satisfactory,61,CO
2016-12-19,Faridabad,1.0,Severe,405,PM2.5
2016-12-20,Faridabad,1.0,Very Poor,360,PM2.5
2016-12-21,Faridabad,1.0,Very Poor,303,PM2.5
2016-12-22,Faridabad,1.0,Very Poor,320,PM2.5
2016-12-23,Faridabad,1.0,Severe,450,PM2.5
2016-12-24,Faridabad,1.0,Severe,491,PM2.5
2016-12-25,Faridabad,1.0,Severe,414,PM2.5
2016-12-26,Faridabad,1.0,Very Poor,368,PM2.5
2016-12-27,Faridabad,1.0,Very Poor,332,PM2.5
2016-12-28,Faridabad,1.0,Very Poor,385,PM2.5
2016-12-29,Faridabad,1.0,Severe,423,PM2.5
2016-12-30,Faridabad,1.0,Very Poor,369,PM2.5
2016-12-31,Faridabad,1.0,Very Poor,367,PM2.5
2017-01-01,Faridabad,1.0,Very Poor,379,PM2.5
2017-01-02,Faridabad,1.0,Very Poor,366,PM2.5
2017-01-03,Faridabad,1.0,Very Poor,346,PM2.5
2017-01-04,Faridabad,1.0,Very Poor,375,PM2.5
2017-01-05,Faridabad,1.0,Very Poor,345,PM2.5
2017-01-06,Faridabad,1.0,Very Poor,361,PM2.5
2017-01-08,Faridabad,1.0,Very Poor,311,PM2.5
2017-01-09,Faridabad,1.0,Severe,460,PM2.5
2017-01-10,Faridabad,1.0,Poor,278,PM2.5
2017-01-11,Faridabad,1.0,Poor,259,PM2.5
2017-01-12,Faridabad,1.0,Very Poor,349,PM2.5
2017-01-13,Faridabad,1.0,Very Poor,364,PM2.5
2017-01-14,Faridabad,1.0,Severe,431,PM2.5
2017-01-15,Faridabad,1.0,Very Poor,397,PM2.5
2017-01-16,Faridabad,1.0,Very Poor,352,PM2.5
2017-01-17,Faridabad,1.0,Poor,280,PM2.5
2017-01-18,Faridabad,1.0,Very Poor,355,PM2.5
2017-01-19,Faridabad,1.0,Very Poor,326,PM2.5
2017-01-20,Faridabad,1.0,Satisfactory,59,CO
2017-01-21,Faridabad,1.0,Poor,294,PM2.5
2017-01-22,Faridabad,1.0,Very Poor,357,PM2.5
2017-01-23,Faridabad,1.0,Very Poor,308,PM2.5
2017-01-24,Faridabad,1.0,Very Poor,352,PM2.5
2017-01-25,Faridabad,1.0,Severe,416,PM2.5